Wind_Speed
19 16 17 20 20 18 19 18 18 16 10 15 17 19 16 17 18 14 14 15 15 18 18 22 12 15 19 21 22 27 27 28 27 28 27 27 27 27 28 28 28 28 29 29
20 23 21 21 19 19 17 20 20 18 13 8 16 20 19 20 16 11 10 8 9 9 9 8 9 12 15 19 21 23 27 27 28 27 28 27 26 26 27 26 28 30 29 31
24 24 22 22 24 17 20 20 20 20 17 14 20 22 25 15 8 8 6 5 3 4 4 3 6 8 12 18 22 24 25 26 28 27 24 23 23 23 24 27 27 29 30 31
23 22 24 16 21 18 21 18 20 19 15 13 4 13 14 10 12 11 8 7 5 5 5 5 3 1 5 12 16 20 21 24 25 26 24 23 24 24 26 24 25 26 28 31
25 25 22 25 22 17 21 16 12 13 16 16 20 12 16 21 12 14 10 10 9 7 6 8 8 10 9 4 2 9 15 19 19 20 23 22 23 22 22 23 23 24 25 29
28 26 23 25 22 22 23 13 13 16 15 16 21 17 18 16 16 15 13 12 11 10 8 9 9 10 12 12 10 5 6 9 12 16 18 22 20 19 19 19 20 21 22 24
31 30 26 18 22 21 15 14 10 12 14 17 19 20 18 16 10 10 16 13 13 10 9 9 8 9 10 11 10 8 5 4 6 10 15 17 19 20 21 20 20 21 21 22
24 27 31 28 25 22 19 21 14 22 16 17 20 13 12 14 15 10 12 14 14 12 10 8 8 8 9 10 9 7 4 2 2 5 8 12 15 17 18 19 21 21 20 22
23 30 23 32 29 23 26 20 27 22 23 18 21 21 12 11 10 11 13 13 16 14 12 11 9 8 8 7 7 7 6 6 6 7 9 11 13 16 19 20 19 20 20 23
23 25 28 26 25 31 29 23 18 15 21 25 22 23 17 23 21 15 17 17 16 14 12 8 7 7 8 8 8 9 10 9 8 9 9 10 12 14 17 19 20 21 22 21
22 21 23 25 25 21 18 20 25 20 15 19 18 18 20 15 10 14 20 18 15 12 9 7 6 7 9 10 13 15 16 16 16 14 13 13 13 14 14 16 19 20 20 19
19 11 17 27 25 28 24 22 27 17 26 16 19 19 20 16 11 11 15 18 13 11 9 7 6 8 10 11 14 15 15 17 17 16 15 15 14 14 14 15 17 18 21 21
17 7 10 25 20 20 26 29 28 23 21 24 17 17 18 20 12 12 13 18 14 12 11 8 7 7 11 12 13 13 14 16 16 16 17 18 18 18 18 19 20 19 19 19
12 14 16 17 26 19 23 33 31 27 18 20 23 29 23 20 14 13 13 17 17 14 11 10 8 8 10 10 9 9 11 14 13 14 15 16 17 17 17 15 15 17 19 19
4 9 20 23 27 28 26 28 29 32 24 25 27 26 27 24 18 17 18 17 16 13 11 11 9 8 9 7 7 8 10 11 11 11 13 15 15 15 16 17 15 14 15 17
4 6 19 19 29 27 29 29 28 30 31 36 32 31 27 24 14 16 19 18 16 14 12 12 11 10 7 6 6 8 9 10 11 12 13 15 16 16 16 17 17 16 14 16
15 6 5 12 23 27 25 28 32 33 32 30 24 26 22 23 18 12 18 17 17 15 14 13 11 9 7 7 7 8 8 8 9 11 13 15 16 15 15 16 17 18 17 16
22 18 8 14 19 18 17 24 31 28 31 31 30 29 18 16 19 16 16 17 15 15 14 12 10 11 10 8 8 7 8 9 11 12 14 15 15 15 15 16 17 18 18 18
24 18 11 10 15 26 32 20 23 27 31 29 33 29 23 5 12 7 9 12 12 13 12 11 13 13 11 9 8 8 10 11 12 14 15 15 15 15 17 17 17 17 17 17
23 23 16 13 10 8 18 14 23 22 23 27 28 26 18 14 9 10 11 14 14 13 15 15 14 14 12 9 9 11 11 11 13 13 13 14 15 15 16 16 16 16 16 16
16 16 19 20 14 16 27 35 17 15 10 13 21 18 14 11 12 18 17 15 14 14 16 16 14 14 12 10 10 11 10 12 11 11 12 13 15 14 16 15 16 16 16 14
22 14 11 18 18 23 20 28 27 14 7 5 4 11 17 11 17 18 17 16 15 14 17 16 15 15 14 12 10 10 11 10 10 11 12 13 13 13 13 13 14 14 14 13
24 20 17 8 7 16 26 23 17 20 10 6 12 18 19 18 17 17 16 16 14 14 16 15 15 16 14 13 12 11 11 11 11 11 11 11 11 11 12 12 14 13 15 16
25 21 16 19 28 31 33 8 5 3 7 9 15 18 17 20 19 17 15 14 13 16 15 16 16 15 14 12 14 13 12 10 9 9 10 11 12 14 13 13 13 13 14 13
11 12 15 22 27 24 30 36 10 8 8 9 12 19 20 18 17 17 15 14 13 17 18 16 16 14 13 12 12 12 11 10 9 9 11 13 12 13 13 13 13 12 12 13
14 19 16 22 23 16 31 12 10 17 17 14 15 16 16 18 15 17 14 15 17 18 18 18 16 14 12 12 12 12 12 11 11 10 11 12 12 12 13 13 14 11 13 14
Wind_Direction
217 229 233 240 243 248 279 285 276 275 278 283 279 280 277 283 286 283 266 253 250 251 250 255 262 234 222 222 220 212 209 205 204 210 212 216 220 222 225 227 228 227 224 222
238 230 242 255 257 271 257 266 267 273 264 284 273 276 281 281 277 277 282 271 268 263 237 221 247 238 217 227 224 223 214 211 211 216 218 221 221 227 228 230 230 229 227 225
239 244 230 249 254 250 253 257 267 274 289 275 276 271 270 245 232 246 236 254 258 257 260 239 248 236 236 235 233 227 222 216 215 218 221 226 232 235 231 228 230 229 228 228
251 253 254 240 258 236 252 251 254 261 266 269 272 278 284 223 210 208 203 216 199 154 136 111 94 70 261 257 244 234 227 218 220 215 223 226 230 232 235 236 235 233 228 228
248 244 243 252 242 239 257 281 274 269 267 271 262 253 260 262 218 217 197 192 175 152 128 103 84 77 73 74 191 219 226 225 221 218 222 230 239 243 248 247 243 238 235 231
247 256 241 239 255 236 259 263 249 259 257 255 254 251 262 254 217 232 173 188 172 164 148 122 105 89 78 72 78 108 160 191 212 219 224 231 246 248 249 254 255 254 247 242
239 243 243 242 254 245 249 215 240 237 233 249 252 247 244 243 280 242 181 193 181 173 161 145 126 100 81 80 79 81 100 155 201 216 225 231 239 246 254 256 258 259 253 248
229 241 229 238 221 240 215 224 230 240 253 258 248 235 253 264 262 250 178 189 180 171 156 151 131 114 98 81 61 67 65 83 194 234 249 252 255 255 258 258 254 258 257 257
257 254 237 222 228 217 248 223 240 256 271 278 277 275 240 239 232 239 208 188 192 176 167 158 131 103 90 79 68 49 32 13 355 327 300 282 277 275 273 271 268 266 265 263
254 265 272 270 232 222 221 247 234 238 252 257 259 261 263 257 223 213 214 199 200 179 173 153 121 107 85 73 64 47 35 32 10 352 338 322 311 297 288 283 274 269 269 271
266 268 249 274 275 260 214 225 251 246 242 241 253 255 257 286 220 228 199 204 203 193 170 149 116 86 68 59 53 41 35 31 26 17 7 359 348 334 318 302 294 286 285 286
332 302 258 246 247 270 287 255 224 239 240 244 243 253 274 296 291 253 207 188 188 190 168 140 123 107 84 67 59 50 46 45 40 37 35 26 13 0 349 336 329 316 295 280
355 316 287 253 243 244 258 263 271 234 247 246 253 244 242 255 228 248 234 169 178 186 161 143 129 101 83 72 64 57 47 43 37 34 35 32 28 22 15 11 6 356 348 344
357 265 249 257 246 241 233 243 252 252 236 243 246 257 253 260 223 212 183 172 181 185 162 143 126 103 93 90 81 65 50 40 30 26 25 23 17 12 7 9 13 5 358 351
57 280 273 269 262 260 251 255 251 256 257 247 249 250 255 259 244 195 181 176 182 175 164 149 140 129 124 113 92 68 54 38 22 16 18 14 9 4 359 356 357 7 6 357
87 277 316 296 265 246 253 239 250 251 256 266 246 249 255 261 261 176 177 183 184 180 166 154 150 142 134 104 82 54 42 28 18 16 18 12 8 3 360 356 352 355 8 3
283 271 304 285 316 305 243 240 237 239 246 261 256 242 247 259 264 191 180 185 191 172 161 161 151 134 122 88 65 51 40 26 18 17 17 15 6 3 358 358 356 353 358 4
263 255 271 280 303 283 253 243 245 241 242 254 265 264 252 256 272 180 188 187 175 161 156 145 137 114 90 75 59 55 35 27 22 20 22 18 10 1 360 356 358 357 356 2
244 253 258 256 273 286 285 262 249 234 237 241 249 257 263 278 94 119 157 172 158 151 138 120 114 105 84 66 54 50 40 31 28 23 21 17 6 360 0 0 1 0 3 10
235 230 228 224 238 296 272 250 255 217 239 237 235 239 234 142 175 178 166 143 140 138 132 124 111 95 82 63 62 54 44 36 28 19 19 13 8 4 5 4 6 7 14 20
267 280 215 229 234 245 263 287 250 205 226 250 242 231 166 171 205 132 144 142 139 127 119 111 103 93 80 70 67 62 44 31 17 12 16 13 11 11 14 14 18 22 31 34
259 257 255 239 224 246 256 264 246 236 176 67 181 143 148 160 122 138 147 142 131 126 130 122 107 92 75 67 73 63 46 22 18 17 21 20 17 15 13 17 14 16 12 5
252 247 253 235 229 294 284 277 259 242 288 175 164 169 176 151 148 150 138 139 132 132 116 113 105 94 77 66 62 61 35 27 22 25 22 18 15 12 12 13 7 5 5 3
264 274 281 268 250 256 283 241 274 278 231 196 160 144 147 143 150 143 137 128 124 110 101 102 100 89 75 61 56 50 33 29 27 20 11 9 6 4 3 4 2 0 355 349
257 306 293 283 274 279 273 264 170 140 106 116 160 149 139 139 138 138 129 118 111 115 111 104 96 89 78 65 56 45 35 29 26 17 10 9 4 2 358 358 351 351 351 348
248 261 260 267 274 287 289 209 170 144 131 146 146 119 120 129 133 122 118 114 113 110 107 99 96 91 81 70 57 43 33 30 23 20 14 7 359 356 351 346 338 335 333 340
Height
772 779 779 766 757 754 757 758 761 748 738 747 747 743 732 719 713 709 708 706 707 706 702 703 705 707 712 716 722 727 735 741 749 752 754 757 757 761 762 763 765 767 769 771
774 771 760 753 752 755 760 765 760 746 737 749 744 739 722 716 709 707 705 702 703 701 699 700 706 707 710 714 718 723 728 736 742 746 748 749 752 753 755 757 758 761 762 764
766 755 749 755 756 760 762 765 760 756 740 736 740 739 720 705 708 705 703 701 702 704 702 703 705 707 710 712 715 719 723 728 734 738 743 746 748 748 748 748 750 752 755 757
756 743 749 752 756 753 765 746 748 752 758 764 726 753 718 708 709 708 704 703 702 702 703 705 707 710 712 712 713 716 718 723 728 733 736 738 740 740 741 742 743 744 746 749
754 749 751 753 751 746 754 742 746 750 755 753 743 748 725 705 707 704 703 702 701 704 704 706 709 709 711 712 713 714 717 719 724 728 732 734 734 736 737 737 737 738 739 740
743 731 732 738 736 737 738 748 753 754 753 767 740 740 726 710 701 695 695 701 702 703 706 706 708 711 711 714 715 717 717 718 722 726 728 731 731 732 732 733 733 733 733 734
746 738 730 728 743 733 741 756 777 775 767 760 721 724 711 690 688 685 690 700 700 701 702 704 705 710 713 715 717 718 720 722 723 724 726 727 728 729 728 728 728 728 727 727
746 750 730 725 734 742 747 745 762 769 759 739 702 723 713 687 684 686 681 693 697 699 702 705 706 708 712 715 719 718 719 719 722 723 724 725 726 725 724 723 723 722 722 722
743 730 704 708 714 731 742 743 728 749 739 743 722 705 691 687 693 688 690 696 698 698 700 704 707 710 713 715 718 719 718 719 720 721 721 721 722 723 721 720 720 719 718 717
735 748 719 706 701 708 723 723 744 744 766 762 731 721 712 694 684 690 695 697 697 695 699 703 708 712 714 716 718 719 719 719 720 721 721 720 720 719 719 718 717 716 715 713
734 735 738 728 722 719 717 728 730 723 726 741 744 719 680 679 671 678 685 688 693 697 699 705 710 712 714 716 718 719 720 719 719 720 720 719 719 718 716 716 714 713 711 709
746 750 742 730 721 713 712 715 718 735 736 717 717 719 671 672 674 672 673 682 691 699 700 704 708 713 716 717 719 722 723 723 723 722 721 720 719 718 716 714 713 711 709 706
782 761 754 733 724 719 728 727 710 707 714 714 722 707 675 671 669 673 670 681 693 701 701 705 709 712 715 718 722 725 726 725 725 725 724 722 720 719 717 715 713 711 709 705
782 765 755 751 720 713 726 718 709 703 715 713 705 695 682 673 676 674 673 685 694 699 701 704 710 715 718 721 724 726 727 727 728 728 727 725 723 722 721 717 714 712 710 707
794 782 753 734 720 714 713 713 708 704 698 704 696 693 681 672 666 670 673 685 695 701 701 704 710 715 720 724 727 728 727 729 731 731 729 727 725 724 722 721 717 713 711 710
791 793 785 750 712 712 713 706 705 700 704 691 676 681 662 660 657 666 676 685 694 697 699 704 710 716 723 724 726 727 729 732 732 733 731 730 728 726 725 723 721 716 710 708
789 792 792 768 734 730 715 694 686 686 686 680 677 663 660 661 659 664 673 680 687 691 698 705 711 716 723 725 727 730 732 735 735 733 731 730 730 728 728 725 722 720 714 708
775 779 790 778 771 751 688 677 675 676 674 669 663 653 648 651 651 658 667 676 683 693 700 707 713 719 723 728 731 733 735 736 736 735 732 731 731 731 729 726 723 720 717 713
759 765 773 787 768 735 695 670 669 670 663 662 663 655 651 654 661 672 669 676 688 697 701 709 716 720 727 731 734 735 737 738 738 737 735 734 735 734 731 727 725 722 718 717
736 744 758 764 777 750 661 655 650 655 672 643 646 647 649 662 687 675 680 685 695 701 705 711 717 722 729 734 736 738 739 741 740 740 739 738 737 735 732 729 727 724 721 719
740 734 736 733 752 724 689 668 640 668 657 634 637 639 647 667 658 665 680 689 696 699 706 714 722 728 732 736 738 742 746 745 744 743 741 741 739 738 736 734 731 728 725 723
736 739 746 728 726 726 681 660 658 642 632 637 639 645 653 657 667 676 683 689 697 703 711 721 727 732 737 739 742 745 748 748 746 746 745 744 744 743 741 738 735 732 729 726
726 721 720 740 700 678 663 646 633 633 634 640 644 641 645 658 671 679 687 693 702 712 716 723 730 736 744 746 747 749 750 748 749 749 748 747 746 744 741 738 736 733 731 729
718 719 723 713 697 703 685 647 646 641 640 640 641 646 657 664 676 683 691 701 709 715 723 731 737 743 749 752 751 752 752 751 752 751 751 749 748 746 744 741 739 736 734 731
735 738 732 722 696 692 677 647 641 646 644 639 652 652 658 670 681 688 699 709 717 724 729 735 742 748 751 754 754 755 755 754 753 752 752 750 749 747 745 742 742 740 737 735
722 722 720 691 686 693 680 633 642 641 643 655 661 661 665 672 688 697 707 716 725 731 738 740 746 751 755 757 758 758 757 756 755 753 754 754 752 750 748 745 742 741 738 735